Regional Weather Roundup
Issued by NWS

Home | Current Version | Previous Version | Graphics & Text | Print | Product List | Glossary On
Versions: 1 2 3 4 5 6 7 8 9 10 11 12 13 14 15 16 17 18 19 20 21 22 23 24 25 26 27 28 29 30 31 32 33 34 35 36 37 38 39 40 41 42 43 44 45 46 47 48 49 50
000
ASUS43 KFSD 190510
RWRSD

WEATHER ROUNDUP FOR SOUTH DAKOTA
NATIONAL WEATHER SERVICE SIOUX FALLS SD
1100 PM CST THU DEC 18 2014

NOTE: "FAIR" INDICATES FEW OR NO CLOUDS BELOW 12,000 FEET WITH NO
SIGNIFICANT WEATHER AND/OR OBSTRUCTIONS TO VISIBILITY.


SDZ001>005-009-010-012>017-190600-
NORTHWEST AND NORTH CENTRAL SOUTH DAKOTA

CITY           SKY/WX    TMP DP  RH WIND       PRES   REMARKS
BUFFALO          N/A     28  22  78 W9        29.89S WCI  19
FAITH            N/A     23  19  85 S8        29.99S WCI  14
MOBRIDGE       CLEAR     22  20  92 SE8       30.00F WCI  12
$$

SDZ012>016-024>037-041>051-057-063-072>074-190600-
SOUTHWEST AND SOUTH CENTRAL SOUTH DAKOTA

CITY           SKY/WX    TMP DP  RH WIND       PRES   REMARKS
RAPID CTY ARPT CLEAR     23  18  81 W6        30.01S WCI  16
PIERRE         CLEAR     19  18  95 S5        30.06S FOG     WCI  12
CUSTER         CLEAR     24  18  77 CALM      29.99S
ELLSWORTH AFB  CLEAR     27  20  73 W9        30.00S WCI  18
PHILIP         CLEAR     15  12  88 W5        30.05R WCI   8
PINE RIDGE     CLEAR     20  15  81 SW10      30.05S WCI   9
SPEARFISH      FAIR      32  19  59 W7        29.99S WCI  26
WINNER         FAIR      24  21  88 S10       30.07S WCI  14
$$

SDZ004>011-016>023-039-040-190600-
NORTHEAST SOUTH DAKOTA

CITY           SKY/WX    TMP DP  RH WIND       PRES   REMARKS
ABERDEEN       CLOUDY    27  23  85 S8        30.12S WCI  19
WATERTOWN      CLOUDY    25  23  92 S8        30.12S FOG     WCI  16
SISSETON         N/A     22  21  96 S9        30.16R WCI  12
$$

SDZ017-020-022-023-036>040-048>070-190600-
SOUTHEAST SOUTH DAKOTA

CITY           SKY/WX    TMP DP  RH WIND       PRES   REMARKS
SIOUX FALLS    CLOUDY    27  24  89 S9        30.17S WCI  18
HURON          CLOUDY    27  24  89 S8        30.14R WCI  19
CHAMBERLAIN    CLOUDY    26  25  93 S7        30.10S WCI  19
MITCHELL       CLOUDY    28  25  88 S9        30.16R WCI  19
YANKTON        CLOUDY    28  25  86 S8        30.20R WCI  20
$$

ABBREVIATIONS USED IN REMARKS
   TC - TEMPERATURE IN CELSIUS
  WCI - WIND CHILL INDEX
   HX - HEAT INDEX
  VSB - VISIBILITY



USA.gov is the U.S. government's official web portal to all federal, state and local government web resources and services.